Regional Weather Roundup
Issued by NWS

Home | Current Version | Previous Version | Text Only | Print | Product List | Glossary Off
Versions: 1 2 3 4 5 6 7 8 9 10 11 12 13 14 15 16 17 18 19 20 21 22 23 24 25 26 27 28 29 30 31 32 33 34 35 36 37 38 39 40 41 42 43 44 45 46 47 48 49 50

000
ASUS43 KLOT 191608
RWRIL

ILLINOIS REGIONAL WEATHER ROUNDUP
NATIONAL WEATHER SERVICE CHICAGO/ROMEOVILLE IL
1000 AM CST SUN NOV 19 2017

NOTE: "FAIR" INDICATES FEW OR NO CLOUDS BELOW 12,000 FEET WITH NO
SIGNIFICANT WEATHER AND/OR OBSTRUCTIONS TO VISIBILITY.

* THESE STATIONS ARE NOT UNDER NWS QUALITY CONTROL. THEY ALSO MAY NOT
  REPORT WEATHER SUCH AS PRECIPITATION OR FOG.

ILZ001-002-007-009-015-016-024-191700-
NORTHWEST ILLINOIS

CITY           SKY/WX    TMP DP  RH WIND       PRES   REMARKS
MOLINE         SUNNY     29  14  53 NW15G22   30.17R WCI  18
STERLING*      SUNNY     31  20  63 W15       30.12R WCI  20
SAVANNA*       SUNNY     28  15  59 W12       30.14R WCI  17
$$

ILZ003-004-008-010-011-017-018-191700-
NORTH CENTRAL ILLINOIS

CITY           SKY/WX    TMP DP  RH WIND       PRES   REMARKS
ROCKFORD       MOSUNNY   28  16  60 NW16      30.09R WCI  16
FREEPORT*      SUNNY     27  16  64 W17       30.11R WCI  14
ROCHELLE*      SUNNY     28  18  66 W14       30.08R WCI  16
DE KALB*       SUNNY     27  19  71 W15G22    30.05S WCI  16
PERU*          SUNNY     27  18  68 W15G23    30.12R WCI  16
$$

ILZ005-006-012>014-019>023-191700-
NORTHEAST ILLINOIS

CITY           SKY/WX    TMP DP  RH WIND       PRES   REMARKS
CHICAGO-OHARE  MOSUNNY   31  19  61 W10       30.03R WCI  22
CHICAGO-MIDWAY MOSUNNY   33  20  58 NW12      30.04R WCI  24
AURORA         MOSUNNY   28  20  71 W17       30.06R WCI  16
LANSING*       PTSUNNY   32  25  74 W15       30.04R WCI  22
JOLIET*        CLOUDY    31  23  71 W14       30.08S WCI  21
WAUKEGAN       SUNNY     30  18  60 NW12G21   30.01R WCI  20
DUPAGE AIRPORT PTSUNNY   29  21  72 NW13      30.04R WCI  19
KANKAKEE*      CLOUDY    31  22  70 W14       30.09R WCI  21
WHEELING       SUNNY     31  19  61 W15       30.04R WCI  20
MORRIS*        PTSUNNY   29  22  74 W15       30.07S WCI  18
ROMEOVILLE*    CLOUDY    29  23  76 NW16      30.06S WCI  18
NORTHERLY ISL    N/A     32  19  59 SW12        N/A  WCI  23
$$

LMZ740>746-191700-
SOUTHERN LAKE MICHIGAN

STATION/POSITION SKY/WX   TEMP    WIND        PRES    VSBY  WAVE
                          AIR SEA DIR/SP/G                  HT/PER
                          (F)     (DEG/KT/KT) (MB)    (MI)  (FT/S)
SOUTHERN BUOY              32 49  320/ 19/ 23 1015.6R         6/ 7
HARRISON CRIB              31     300/ 16/ 18   N/A
BURNHAM HARBOR             32     250/  9/ 18   N/A
CALUMET HARBOR             33     260/  5/ 10 1016.4R
BURNS HARBOR               32     290/ 16/ 20 1017.3R
MICHIGAN CITY              32     270/ 23/ 26   N/A
$$

ILZ025>027-034>036-040-047-049-050-058-095>099-191700-
WEST-CENTRAL ILLINOIS

CITY           SKY/WX    TMP DP  RH WIND       PRES   REMARKS
QUINCY         SUNNY     31  17  56 NW14      30.22R WCI  21
GALESBURG*     SUNNY     28  19  67 W18G24    30.19R WCI  16
MACOMB*        SUNNY     29  19  64 NW17      30.22R WCI  18
JACKSONVILLE*  SUNNY     31  17  57 W14       30.20S WCI  20
PITTSFIELD*    SUNNY     32  17  53 NW10G18   30.23R WCI  24
$$

ILZ028>032-037-038-041>044-048-051>054-059>061-191700-
CENTRAL ILLINOIS

CITY           SKY/WX    TMP DP  RH WIND       PRES   REMARKS
PONTIAC        MOSUNNY   29  24  80 W15       30.11F WCI  18
BLOOMINGTON    SUNNY     31  21  66 NW17      30.12R WCI  19
DECATUR        SUNNY     30  19  63 W17       30.16R WCI  18
PEORIA         SUNNY     29  16  58 NW10      30.16R WCI  20
LACON*         SUNNY     29  19  66 NW10      30.14R WCI  19
LINCOLN*       SUNNY     30  19  61 NW9G17    30.16R WCI  22
SPRINGFIELD    SUNNY     32  19  58 W15       30.19R WCI  22
TAYLORVILLE    SUNNY     31  18  59 W16       30.19R WCI  19
$$

ILZ033-039-045-046-055>057-062-063-191700-
EAST-CENTRAL ILLINOIS

CITY           SKY/WX    TMP DP  RH WIND       PRES   REMARKS
CHAMPAIGN      PTSUNNY   30  22  72 NW16G23   30.13R WCI  19
DANVILLE*      CLOUDY    28  22  79 W13       30.07S WCI  17
RANTOUL*       CLOUDY    29  23  78 NW14      30.12R WCI  19
MATTOON        MOSUNNY   30  22  72 NW16      30.13S WCI  19
PARIS*         CLOUDY    30  25  81 NW16      30.13R WCI  18
$$

ILZ079-100>102-191700-
SOUTHWEST ILLINOIS

CITY           SKY/WX    TMP DP  RH WIND       PRES   REMARKS
ALTON          SUNNY     34  19  55 NW12G18   30.22R WCI  25
BELLEVILLE     SUNNY     36  18  47 NW14      30.21R WCI  27
CAHOKIA*       SUNNY     36  16  44 NW15      30.23R WCI  27
SPARTA*        SUNNY     35  22  59 NW13      30.24R WCI  26
$$

ILZ064>066-069>071-074>076-080>082-084>086-088>090-092>094-191700-
SOUTH-CENTRAL ILLINOIS

CITY           SKY/WX    TMP DP  RH WIND       PRES   REMARKS
CARBONDALE     SUNNY     37  23  56 NW15G23   30.22R WCI  28
CAIRO*         SUNNY     39  27  62 NW14      30.24R WCI  31
EFFINGHAM*     SUNNY     33  22  65 W12       30.18S WCI  24
MARION         SUNNY     37  19  48 N17       30.23R WCI  28
MT. VERNON     SUNNY     35  20  54 VRB7      30.21R WCI  29
CENTRALIA*     SUNNY     34  22  60 NW12G20   30.20R WCI  26
SALEM*         SUNNY     35  21  57 NW9       30.19S WCI  28
METROPOLIS*    SUNNY     39  24  54 N12G18    30.23R WCI  32
$$

ILZ067-068-072-073-078-083-087-091-191700-
SOUTHEAST ILLINOIS

CITY           SKY/WX    TMP DP  RH WIND       PRES   REMARKS
LAWRENCEVILLE  CLOUDY    34  24  67 NW15      30.18R WCI  24
FLORA*         SUNNY     35  23  63 NW13G18   30.14R WCI  26
FAIRFIELD*     SUNNY     35  22  60 NW7       30.19S WCI  29
HARRISBURG*    SUNNY     37  24  58 NW15G22   30.22R WCI  28
ROBINSON*      CLOUDY    32  24  72 W13       30.17R WCI  22
CARMI*         SUNNY     35  25  65 W13G21    30.19S WCI  27
$$

ABBREVIATIONS USED IN REMARKS
   TC - TEMPERATURE IN CELSIUS
  WCI - WIND CHILL INDEX
   HX - HEAT INDEX
  VSB - VISIBILITY
$$




USA.gov is the U.S. government's official web portal to all federal, state and local government web resources and services.